This demonstration page uses our WeatherBlox Daily Observations layout. Learn more.

36.17497, -115.13722

Hourly Observations for July 18, 2015

Temp ( °F °C ) Dew Point ( °F °C ) Humidity (%) Winds ( mph kmh ) Pressure ( in mb ) Visibility ( mi km ) Precip ( " mm )
12:53 am 00:53 Clear 88 31 46 8 24 24 S 13 20 29.65 1004 10 16.09344 0 0
1:53 am 01:53 Clear 88 31 46 8 24 24 S 10 17 29.65 1004 10 16.09344 0 0
2:53 am 02:53 Clear 84 29 59 15 43 43 SSE 10 17 29.71 1006 10 16.09344 0 0
3:53 am 03:53 Clear 84 29 59 15 43 43 S 9 15 29.74 1007 10 16.09344 0 0
4:53 am 04:53 Clear 84 29 57 14 40 40 S 9 15 29.74 1007 10 16.09344 0 0
5:53 am 05:53 Sunny 82 28 57 14 42 42 SSE 12 19 29.74 1007 10 16.09344 0 0
6:53 am 06:53 Sunny 84 29 57 14 40 40 SSE 9 15 29.77 1008 10 16.09344 0 0
7:53 am 07:53 Sunny 86 30 59 15 40 40 SSE 13 20 29.77 1008 10 16.09344 0 0
8:53 am 08:53 Sunny 90 32 55 13 31 31 SE 8 13 29.74 1007 10 16.09344 0 0
9:53 am 09:53 Sunny 93 34 46 8 20 20 SSE 10 17 29.74 1007 10 16.09344 0 0
10:53 am 10:53 Sunny 93 34 50 10 23 23 S 14 22 29.74 1007 10 16.09344 0 0
11:53 am 11:53 Sunny 93 34 50 10 23 23 S 18 30 29.77 1008 10 16.09344 0 0
12:53 pm 12:53 Sunny 91 33 52 11 26 26 SSW 16 26 29.74 1007 10 16.09344 0 0
1:53 pm 13:53 Sunny 82 28 55 13 40 40 SW 30 48 29.85 1011 10 16.09344 0 0
2:53 pm 14:53 Cloudy with Light Rain 82 28 55 13 40 40 W 22 35 29.85 1011 10 16.09344 0.001 0.001
3:53 pm 15:53 Sunny 88 31 52 11 29 29 W 17 28 29.77 1008 10 16.09344 0.001 0.001
4:53 pm 16:53 Sunny 88 31 50 10 27 27 SSW 16 26 29.77 1008 10 16.09344 0 0
5:53 pm 17:53 Sunny 84 29 55 13 37 37 SSE 20 31 29.77 1008 10 16.09344 0 0
6:53 pm 18:53 Sunny 84 29 55 13 37 37 SSE 21 33 29.8 1009 10 16.09344 0 0
7:53 pm 19:53 Sunny 81 27 57 14 45 45 ESE 18 30 29.85 1011 10 16.09344 0 0
8:53 pm 20:53 Clear 81 27 57 14 45 45 ESE 20 31 29.85 1011 10 16.09344 0 0
9:53 pm 21:53 Clear 79 26 57 14 48 48 SE 18 30 29.88 1012 10 16.09344 0 0
10:53 pm 22:53 Clear 79 26 59 15 51 51 ESE 12 19 29.91 1013 10 16.09344 0 0
11:53 pm 23:53 Clear 77 25 61 16 57 57 ESE 9 15 29.91 1013 10 16.09344 0 0

Powered by AerisWeather